Location: Albany
(35.0170°S, 117.8920°E)
Time: 18:46:07
(UTC+08:00)

SR - Pass Details

Date: 24 January 2021
Orbit: 573 x 882 km, 66.7° (Epoch: 25 February)

Event Time Altitude Azimuth Distance (km) Brightness Sun altitude
Rises 01:22:08 0° 197° (SSW) 2,874 ? -33.8°
Reaches altitude 10° 01:24:38 10° 186° (S) 1,938 ? -33.6°
Enters shadow 01:26:38 22° 166° (SSE) 1,306 ? -33.5°
